Home   Weather   Chelyabinsk   Past weeks

Flag for Russia Past Weather in Chelyabinsk, Russia — Yesterday and Last 2 Weeks

Now
70 °F

Scattered clouds.


Feels Like: 70 °F
Forecast: 59 / 71 °F
Wind: 13 mph from West

Location: Ekaterinburg

Current Time: Jul 25, 2017 at 5:56:20 pm

Latest Report: Jul 25, 2017 at 5:00 pm


Visibility: N/A

Pressure: 29.62 "Hg

Humidity: 60%

Dew Point: 55 °F

Location of ChelyabinskLocation

Past Weather in Chelyabinsk — Graph

°F

Chelyabinsk Temperature Yesterday

Maximum temperature yesterday: 72 °F (at 11:30 am)
Minimum temperature yesterday: 50 °F (at 3:30 am)
Average temperature yesterday: 63 °F

High & Low Weather Summary for the Past Weeks

 TemperatureHumidityPressure
High81 °F (Jul 21, 3:00 pm)100% (Jul 10, 7:00 pm)30.07 "Hg (Jul 10, 7:00 pm)
Low45 °F (Jul 13, 4:30 am)31% (Jul 12, 3:00 pm)29.62 "Hg (Jul 25, 3:00 pm)
Average64 °F78%29.91 "Hg
* Reported Jul 10 4:00 pm — Jul 25 4:30 pm, Chelyabinsk. Weather by CustomWeather, © 2017

Note: Actual official high and low records may vary slightly from our data, if they occured in-between our weather recording intervals... More about our weather records

Advertising

Chelyabinsk Weather History for the Previous 24 Hours

Scroll right to see more
 ConditionsComfort  
Time TempWeatherWind HumidityBarometerVisibility
4:30 pm
Tue, Jul 25
72 °FScattered clouds.8 mph57%29.62 "HgN/A
4:00 pm72 °FScattered clouds.3 mph57%29.62 "HgN/A
3:00 pm70 °FSunny.3 mph53%29.62 "Hg10 mi
2:30 pm68 °FSunny.3 mph56%29.65 "Hg10 mi
2:00 pm68 °FPassing clouds.3 mph64%29.65 "HgN/A
1:30 pm66 °FScattered clouds.6 mph68%29.65 "HgN/A
1:00 pm66 °FScattered clouds.6 mph68%29.65 "HgN/A
12:30 pm66 °FPassing clouds.3 mph68%29.65 "HgN/A
12:00 pm68 °FPassing clouds.3 mph60%29.65 "HgN/A
11:30 am66 °FPassing clouds.3 mph68%29.65 "HgN/A
11:00 am63 °FPassing clouds.6 mph83%29.65 "HgN/A
10:30 am63 °FPassing clouds.3 mph83%29.65 "HgN/A
10:00 am61 °FPassing clouds.3 mph88%29.68 "HgN/A
9:30 am59 °FPassing clouds.6 mph94%29.65 "HgN/A
9:00 am59 °FSunny.6 mph88%29.68 "Hg10 mi
8:30 am59 °FSunny.6 mph94%29.68 "Hg10 mi
8:00 am57 °FScattered clouds.3 mph100%29.68 "HgN/A
7:30 am57 °FScattered clouds.1 mph100%29.68 "HgN/A
7:00 am57 °FScattered clouds.3 mph100%29.68 "HgN/A
6:30 am57 °FScattered clouds.3 mph100%29.68 "HgN/A
6:00 am57 °FScattered clouds.3 mph100%29.68 "Hg6 mi
5:30 am57 °FScattered clouds.No wind100%29.68 "HgN/A
5:00 am57 °FScattered clouds.1 mph94%29.68 "HgN/A
4:30 am57 °FPassing clouds.No wind100%29.68 "HgN/A
4:00 am57 °FPassing clouds.3 mph94%29.68 "HgN/A
3:30 am61 °FPassing clouds.3 mph88%29.68 "Hg6 mi
3:00 am61 °FPassing clouds.3 mph88%29.68 "HgN/A
2:30 am61 °FPassing clouds.3 mph88%29.68 "HgN/A
2:00 am63 °FPassing clouds.3 mph88%29.68 "HgN/A
1:30 am64 °FPassing clouds.8 mph83%29.71 "HgN/A
1:00 am64 °FPassing clouds.10 mph88%29.71 "Hg6 mi
12:30 am63 °FPassing clouds.3 mph94%29.71 "HgN/A
12:00 am63 °FPassing clouds.No wind100%29.71 "Hg4 mi
11:30 pm
Mon, Jul 24
63 °FPassing clouds.No wind94%29.71 "Hg5 mi
11:00 pm63 °FPassing clouds.No wind94%29.71 "HgN/A
10:30 pm61 °FFog.1 mph100%29.71 "Hg4 mi
10:00 pm63 °FPassing clouds.1 mph94%29.71 "Hg6 mi
9:30 pm63 °FClear.1 mph94%29.71 "Hg5 mi
9:00 pm68 °FSunny.3 mph78%29.71 "Hg10 mi
8:30 pm70 °FSunny.1 mph78%29.71 "Hg10 mi
8:00 pm70 °FSunny.3 mph73%29.71 "Hg10 mi
7:30 pm72 °FSunny.3 mph65%29.71 "Hg10 mi
7:00 pm70 °FSunny.1 mph73%29.71 "Hg10 mi
6:30 pm70 °FPartly sunny.1 mph73%29.71 "HgN/A
6:00 pm70 °FPartly sunny.1 mph73%29.71 "HgN/A
5:30 pm72 °FPartly sunny.No wind69%29.71 "HgN/A
5:00 pm70 °FPartly sunny.1 mph69%29.71 "HgN/A
Weather by CustomWeather, © 2017

See weather overviewHow to use our weather pages